Wind_Speed
18 18 17 17 16 17 17 17 18 18 18 18 18 18 17 17 16 17 18 19 19 20 20 20 20 20 20 20 20 18 17 17 17 17 18 19 21 23 25 27 29 30 32 34
19 18 16 16 16 15 15 16 16 16 16 15 15 15 14 14 15 17 17 17 18 19 20 20 20 20 20 20 18 17 15 15 15 15 16 17 18 19 20 22 25 28 30 32
19 17 15 15 14 14 13 14 14 14 13 12 12 12 12 13 14 15 16 17 18 19 19 20 20 20 19 18 17 16 15 15 14 14 15 15 16 16 17 19 21 23 26 29
18 15 14 13 12 12 12 11 11 10 10 10 10 10 12 13 14 15 16 16 18 18 18 19 20 19 18 18 18 17 16 15 14 14 14 14 14 14 15 17 18 20 22 26
16 14 12 11 10 10 9 8 8 7 7 7 8 10 11 13 14 14 16 16 17 17 18 19 19 19 18 18 18 18 16 15 15 14 13 12 13 13 13 14 16 18 20 23
14 12 11 9 8 7 6 5 4 5 6 7 8 10 11 12 13 14 15 17 17 18 18 19 19 19 19 19 19 19 18 17 16 15 14 13 13 13 13 13 14 15 17 20
13 11 9 7 6 4 3 2 3 5 6 7 8 10 11 12 13 14 15 17 17 18 18 19 19 20 20 19 20 19 19 18 17 17 16 15 14 13 12 12 12 13 15 17
11 10 8 6 4 2 1 2 3 4 5 7 8 10 11 12 13 14 15 16 17 18 18 18 19 20 20 20 21 20 20 20 19 19 18 17 16 15 14 13 13 13 14 15
11 9 7 5 4 3 3 4 4 5 5 7 8 9 10 12 13 14 15 16 17 17 18 18 19 19 20 20 21 22 21 21 21 21 20 19 19 17 15 14 12 12 12 14
9 8 7 6 5 4 5 5 5 5 5 7 8 10 11 12 13 14 15 16 17 17 18 18 19 19 19 20 21 22 23 23 23 22 22 21 20 19 18 16 14 13 12 12
9 9 7 6 6 5 5 5 5 5 5 6 7 9 10 11 12 14 15 16 17 18 18 19 19 19 19 20 20 22 23 24 23 23 23 23 22 21 20 18 16 15 13 12
10 9 8 7 6 6 6 5 5 5 5 6 7 8 9 11 12 13 14 16 17 18 18 19 19 19 19 20 20 21 22 23 24 24 24 24 24 24 22 20 19 18 16 14
11 10 9 7 6 6 5 4 4 4 5 6 7 8 8 10 11 12 14 15 16 17 17 18 18 19 19 20 20 21 21 22 23 24 25 25 25 25 24 23 21 20 19 16
10 9 8 7 6 5 5 4 4 4 5 6 7 7 8 9 11 12 13 14 15 16 16 17 17 18 19 19 20 21 21 22 22 23 24 25 25 25 25 25 24 22 21 20
10 9 8 7 6 5 5 5 5 5 5 5 6 7 8 9 10 11 12 13 14 15 16 16 17 17 18 19 19 20 21 21 22 22 23 24 25 25 26 25 25 24 23 22
10 9 8 7 6 5 5 4 4 4 4 5 6 7 8 9 10 11 12 12 13 14 15 16 16 17 17 18 19 20 20 21 22 22 23 23 24 25 25 26 26 25 24 23
10 9 7 6 5 5 4 3 2 2 3 4 5 6 7 8 10 11 11 12 13 14 14 15 16 16 17 18 18 19 20 21 21 22 22 23 23 24 25 26 26 26 25 25
9 8 7 6 5 3 2 1 1 1 2 3 4 5 7 8 9 10 11 12 13 14 14 15 16 16 17 17 18 19 19 20 21 21 22 22 23 23 24 25 25 26 26 25
8 7 6 5 5 4 3 2 2 2 3 4 5 6 7 9 10 11 12 12 13 14 15 16 16 17 17 17 18 18 19 19 20 21 21 21 21 22 23 24 24 25 25 25
8 8 7 6 6 6 5 5 5 5 5 6 7 8 9 10 11 12 13 13 14 14 15 16 16 17 17 18 18 18 19 19 19 20 20 21 21 21 21 22 23 24 24 24
10 9 9 8 8 7 7 7 8 8 8 9 9 10 11 12 12 13 14 14 15 15 16 16 17 17 17 18 18 18 19 19 19 19 20 20 20 20 20 21 21 22 23 22
12 11 11 11 11 10 10 10 11 11 11 12 12 12 13 13 14 14 15 15 16 16 17 17 18 18 18 18 18 19 19 19 19 19 19 19 19 19 20 19 20 20 21 21
15 14 14 14 13 13 13 13 14 14 14 14 14 14 15 15 15 15 16 16 17 17 18 18 19 19 19 19 19 19 19 19 19 19 19 19 19 19 19 19 19 18 19 19
18 17 17 17 16 16 16 16 16 16 16 16 16 16 16 17 17 17 18 18 19 19 20 20 20 20 20 20 20 20 20 20 20 20 20 20 20 20 19 19 18 18 17 17
20 19 19 19 19 19 19 19 18 18 18 18 18 18 18 19 19 20 20 20 21 21 22 22 22 22 22 22 22 22 21 21 21 21 20 20 20 20 20 19 19 18 17 17
22 22 22 21 21 21 21 21 21 20 20 20 20 20 21 21 22 22 22 23 23 23 24 24 25 25 25 25 24 23 23 23 22 22 22 21 21 20 20 20 20 19 19 18
Wind_Direction
243 249 257 266 274 282 290 297 302 308 313 316 320 322 326 329 333 335 336 336 337 338 337 336 333 330 328 325 321 316 310 303 296 290 285 278 272 267 264 260 256 252 249 248
240 245 255 265 275 284 292 299 305 311 316 320 325 330 334 338 341 342 342 342 342 342 342 341 340 337 335 333 330 324 319 315 308 300 292 285 280 273 267 263 258 253 250 247
237 245 254 265 276 285 294 302 309 316 322 328 332 338 342 347 350 350 348 347 346 346 346 346 346 346 345 346 344 340 332 325 319 311 303 296 289 279 272 267 262 256 251 248
234 243 253 265 276 288 296 305 312 321 330 337 345 350 353 356 356 355 355 354 353 354 354 355 355 354 354 355 354 349 343 337 330 322 315 308 302 291 281 275 267 260 255 251
233 242 250 261 275 287 296 307 320 334 345 353 360 2 2 2 1 2 2 3 4 4 3 3 4 3 3 2 1 359 357 353 347 341 334 324 314 305 296 286 275 266 260 255
228 235 244 258 271 282 297 315 342 2 9 13 11 11 10 9 9 10 12 13 13 11 10 10 9 9 9 9 9 9 8 6 2 359 352 343 331 320 308 297 286 275 267 260
222 230 241 251 260 273 301 355 30 32 27 24 20 19 17 16 17 18 18 17 17 16 15 14 14 14 15 16 15 15 14 13 10 7 3 357 349 339 328 315 302 289 277 267
219 227 233 235 235 238 121 78 63 55 39 30 26 23 22 22 22 22 21 20 19 18 18 18 18 18 20 20 20 18 18 16 15 12 9 5 359 352 343 332 318 303 288 277
213 218 215 208 197 164 122 98 80 70 53 40 33 31 29 26 26 25 23 22 21 21 22 21 21 22 24 24 24 23 22 21 20 18 16 13 9 5 357 347 334 320 304 289
204 202 196 184 165 140 122 104 89 74 57 45 38 33 30 31 31 29 27 27 26 26 25 24 24 25 25 26 25 24 23 22 22 21 19 17 14 11 6 359 350 338 324 309
189 186 178 167 153 138 124 107 90 75 58 50 40 36 35 35 33 31 29 29 29 29 28 27 26 26 26 25 24 24 24 25 24 22 20 19 15 12 9 5 360 352 339 326
176 172 167 158 148 137 123 108 90 76 62 49 41 38 35 35 32 30 30 29 29 29 29 29 28 28 27 25 23 23 24 24 24 23 21 20 19 17 14 11 8 3 355 344
168 164 161 155 148 140 129 110 90 77 65 47 39 37 34 31 29 29 29 28 28 28 28 27 27 26 25 23 22 22 22 22 22 22 22 21 20 20 19 17 14 11 7 2
163 159 157 154 148 139 129 113 97 81 64 51 42 39 35 30 28 27 26 25 25 25 24 23 23 22 21 20 20 20 20 19 19 19 20 20 20 19 19 19 17 16 14 12
160 157 153 149 145 135 123 113 100 83 67 55 47 40 33 28 25 23 21 20 20 20 20 19 18 17 17 16 16 16 16 16 16 16 17 18 19 19 19 19 18 18 17 16
157 155 154 151 147 139 127 114 102 86 69 57 47 38 31 25 21 18 17 15 15 14 14 13 13 13 12 13 13 13 13 12 13 13 14 15 17 18 19 20 19 20 20 20
158 156 156 154 153 149 139 123 106 80 55 38 29 23 19 16 14 12 11 10 9 7 7 7 8 8 8 8 7 7 8 8 9 11 12 13 15 16 18 20 21 21 21 22
165 165 166 168 171 175 179 160 109 27 13 9 6 3 2 1 1 2 3 3 2 1 0 1 2 3 3 3 3 4 5 6 8 10 11 12 13 15 16 18 20 21 22 23
181 184 188 195 202 209 219 247 287 304 317 329 337 341 344 346 348 350 352 353 353 353 354 355 355 356 356 357 358 359 1 2 4 6 8 9 11 12 14 16 17 20 21 23
201 206 212 219 228 236 246 262 275 287 299 310 318 324 328 331 335 338 340 342 344 346 347 349 350 350 350 351 352 353 355 357 359 1 3 5 7 8 10 12 14 16 19 21
218 223 229 235 240 246 256 265 274 282 292 300 306 312 316 320 323 326 329 332 335 337 339 341 342 343 344 345 346 347 349 351 352 354 356 359 1 3 5 7 10 13 15 18
230 234 238 243 248 253 262 269 275 281 287 293 298 302 307 310 314 317 320 323 326 329 331 333 334 335 337 338 339 340 342 344 345 347 349 351 354 356 358 1 4 7 10 14
239 242 246 250 254 259 264 269 275 280 285 289 293 297 301 305 308 311 314 317 319 321 323 325 327 328 330 331 332 334 335 337 338 340 341 343 345 347 349 352 355 358 2 6
244 246 250 253 257 261 266 270 275 279 283 287 290 294 298 301 304 307 310 312 314 315 317 318 320 321 323 325 326 327 329 331 332 333 334 335 337 339 340 342 344 348 351 354
247 250 253 256 258 262 265 270 274 277 281 284 287 291 294 297 300 303 306 308 310 311 312 313 314 315 316 317 318 320 322 324 325 326 327 329 330 330 332 333 334 335 338 341
249 251 254 256 259 263 266 269 272 275 278 281 285 288 291 294 297 300 302 304 306 308 308 309 309 309 310 310 311 313 314 315 316 317 318 319 320 322 323 324 325 326 326 328
Height
5898 5900 5901 5901 5901 5901 5899 5898 5896 5893 5890 5887 5884 5881 5877 5874 5870 5867 5863 5859 5855 5851 5847 5842 5838 5834 5830 5826 5822 5818 5815 5813 5811 5809 5808 5807 5806 5806 5806 5806 5807 5808 5810 5812
5896 5897 5898 5898 5898 5897 5896 5895 5892 5890 5887 5884 5881 5878 5875 5871 5868 5865 5861 5857 5853 5849 5845 5840 5836 5832 5827 5823 5819 5815 5812 5809 5807 5805 5803 5802 5801 5800 5799 5799 5799 5800 5802 5804
5892 5894 5895 5895 5895 5894 5893 5892 5890 5887 5885 5882 5879 5877 5874 5870 5867 5863 5860 5856 5852 5848 5843 5839 5834 5830 5825 5821 5817 5812 5809 5806 5804 5802 5800 5798 5796 5795 5794 5793 5793 5794 5795 5796
5889 5891 5892 5893 5892 5892 5890 5889 5887 5885 5883 5880 5878 5876 5873 5869 5866 5862 5859 5855 5851 5847 5843 5838 5833 5829 5824 5820 5816 5811 5807 5804 5801 5799 5796 5794 5792 5791 5789 5788 5788 5788 5789 5790
5887 5888 5890 5890 5890 5889 5888 5887 5885 5883 5881 5879 5877 5875 5873 5869 5865 5862 5858 5854 5850 5846 5842 5838 5833 5829 5824 5820 5815 5811 5807 5803 5800 5797 5794 5792 5789 5787 5785 5784 5783 5783 5783 5783
5885 5886 5887 5888 5888 5887 5886 5885 5884 5882 5881 5879 5877 5875 5872 5868 5865 5862 5858 5854 5850 5846 5842 5838 5834 5829 5825 5820 5816 5811 5807 5803 5799 5796 5792 5789 5787 5784 5782 5780 5779 5778 5778 5778
5883 5884 5885 5886 5886 5885 5885 5884 5884 5882 5881 5879 5877 5874 5872 5868 5865 5862 5858 5855 5851 5847 5843 5839 5834 5830 5825 5821 5816 5812 5808 5804 5800 5796 5792 5788 5785 5782 5779 5777 5775 5774 5773 5772
5881 5883 5884 5884 5884 5884 5883 5883 5883 5882 5881 5879 5876 5874 5872 5868 5865 5862 5859 5855 5852 5848 5844 5839 5835 5831 5826 5822 5818 5813 5809 5804 5800 5796 5792 5788 5784 5780 5777 5774 5772 5770 5768 5767
5880 5881 5882 5882 5883 5883 5882 5882 5882 5881 5880 5879 5877 5875 5872 5869 5866 5863 5859 5856 5852 5849 5845 5841 5837 5832 5828 5824 5819 5815 5810 5806 5801 5797 5792 5788 5784 5780 5776 5773 5769 5767 5765 5763
5878 5880 5881 5881 5882 5882 5882 5881 5881 5881 5880 5879 5877 5875 5873 5869 5867 5864 5860 5857 5853 5850 5846 5842 5838 5834 5830 5825 5821 5817 5812 5807 5803 5798 5793 5788 5784 5780 5776 5772 5768 5765 5762 5759
5877 5879 5880 5881 5881 5881 5882 5882 5881 5880 5880 5879 5877 5878 5873 5870 5868 5865 5861 5858 5855 5851 5847 5843 5840 5836 5832 5827 5823 5819 5814 5809 5804 5800 5795 5790 5785 5780 5776 5771 5767 5763 5759 5756
5876 5878 5879 5880 5880 5880 5881 5881 5881 5881 5880 5878 5877 5879 5873 5871 5868 5865 5862 5859 5856 5852 5849 5845 5841 5837 5833 5829 5825 5821 5816 5812 5807 5802 5797 5792 5787 5781 5776 5771 5767 5762 5758 5754
5876 5878 5879 5880 5882 5881 5880 5880 5880 5880 5879 5878 5877 5879 5874 5871 5869 5866 5863 5860 5857 5854 5850 5847 5843 5839 5835 5831 5827 5823 5818 5814 5809 5804 5799 5794 5789 5783 5778 5772 5767 5762 5757 5753
5875 5877 5879 5880 5880 5880 5880 5880 5880 5880 5879 5878 5877 5876 5874 5872 5869 5867 5864 5861 5858 5855 5852 5848 5845 5841 5837 5833 5829 5824 5820 5816 5811 5806 5801 5796 5791 5785 5780 5774 5769 5764 5758 5753
5875 5877 5878 5879 5879 5880 5880 5880 5880 5879 5879 5878 5877 5876 5874 5872 5870 5867 5865 5862 5859 5856 5853 5849 5846 5842 5838 5834 5830 5826 5822 5817 5813 5808 5803 5798 5793 5788 5782 5777 5771 5765 5760 5754
5875 5877 5878 5879 5879 5880 5880 5880 5880 5879 5879 5878 5877 5876 5874 5872 5870 5867 5865 5862 5859 5856 5853 5850 5846 5843 5839 5835 5831 5827 5823 5819 5814 5809 5805 5800 5795 5790 5784 5779 5773 5767 5762 5756
5875 5876 5878 5879 5879 5880 5880 5880 5880 5879 5879 5878 5877 5876 5874 5872 5870 5868 5865 5862 5860 5857 5854 5850 5847 5843 5840 5836 5832 5828 5824 5820 5815 5811 5806 5801 5797 5792 5787 5781 5776 5770 5764 5759
5875 5876 5877 5878 5879 5880 5882 5879 5879 5879 5878 5877 5876 5875 5873 5871 5869 5867 5865 5862 5859 5857 5853 5850 5847 5843 5840 5836 5833 5829 5825 5820 5816 5812 5807 5803 5798 5793 5789 5784 5778 5773 5767 5762
5874 5875 5876 5877 5878 5878 5879 5878 5878 5877 5877 5876 5875 5874 5872 5870 5868 5866 5864 5861 5859 5856 5853 5850 5846 5843 5840 5836 5833 5829 5825 5821 5817 5813 5808 5804 5800 5795 5791 5786 5781 5775 5770 5765
5873 5874 5875 5876 5876 5877 5878 5877 5876 5877 5876 5875 5873 5872 5870 5869 5867 5866 5863 5860 5858 5855 5852 5849 5846 5842 5839 5836 5832 5829 5825 5821 5817 5813 5809 5805 5801 5796 5792 5788 5783 5778 5773 5768
5871 5872 5873 5873 5874 5874 5875 5874 5874 5875 5875 5872 5871 5870 5868 5867 5865 5863 5861 5858 5856 5853 5850 5847 5844 5841 5838 5835 5831 5828 5825 5821 5817 5813 5809 5805 5801 5797 5793 5789 5784 5780 5775 5771
5868 5869 5870 5870 5871 5873 5871 5871 5871 5871 5870 5869 5868 5867 5865 5864 5862 5860 5858 5856 5853 5851 5848 5845 5842 5839 5836 5833 5830 5827 5823 5820 5816 5813 5809 5805 5801 5797 5794 5790 5786 5782 5777 5773
5864 5866 5866 5867 5869 5868 5867 5867 5867 5866 5866 5865 5864 5863 5862 5860 5858 5857 5855 5852 5850 5848 5845 5843 5840 5837 5834 5831 5828 5825 5822 5818 5815 5812 5808 5804 5801 5797 5793 5790 5786 5782 5778 5775
5860 5860 5861 5862 5862 5862 5862 5862 5862 5861 5861 5860 5859 5858 5857 5856 5854 5852 5851 5848 5846 5844 5841 5839 5836 5834 5831 5828 5825 5822 5819 5816 5813 5810 5806 5803 5799 5796 5793 5789 5786 5782 5779 5775
5854 5855 5855 5856 5857 5857 5857 5857 5857 5856 5856 5855 5854 5853 5852 5851 5849 5848 5846 5844 5842 5839 5837 5834 5832 5829 5827 5824 5821 5819 5816 5813 5810 5807 5803 5800 5797 5794 5791 5787 5784 5781 5778 5775
5848 5849 5849 5850 5851 5851 5851 5851 5851 5850 5850 5849 5849 5848 5846 5845 5843 5842 5840 5838 5836 5834 5832 5829 5826 5824 5821 5818 5816 5814 5811 5808 5805 5802 5799 5796 5794 5791 5788 5785 5782 5779 5776 5773